COSMOS 1275 DEB, 42224

Orbit data source: Space-Track

COSMOS 1275 DEB, 42224 is space debris in LEO originally from a launch on Thu, 04 Jun 1981 UTC launched from the Plesetsk Missile And Space Complex (PKMTR). Debris objects in space refer to the collection of defunct objects orbiting the Earth. Examples of debris include non-operational satellites, rocket bodies, and fragments generated from explosions, collisions, or faulty payload assembly.

Loading next visibility...
Identifier
42224, 1981-053UQ
Orbit
LEO
Country
Flag of CISCIS
Related business
Manufacturer
Unknown
Mission
Spacecraft
Bus & Motor
Unknown
Mass
Unknown
Launch date (UTC)
1981-06-04 (44 years ago)
Launch vehicle
Unknown
Launch site
Plesetsk Missile And Space Complex (PKMTR)
Object type
Payload
Rocket body
Debris
Shape & HBR
Unknown shape, 0.1 m
Radar Cross Section
Small (<0.1 m²)

Expand to show TLE details & history
Last TLE update: 7 months ago

TLE from 7 months ago
0 COSMOS 1275 DEB
1 42224U 81053UQ  25084.24320542  .00014536  00000-0  60216-2 0  9998
2 42224  82.7300 278.8104 0033105  91.1310 269.3668 14.26187264146005
Epoch: 2025-03-25T05:50Z
TLE epoch observation values (Epoch: 2025-03-25T05:50:12.948Z)
Latitude
0.00007°
Longitude
8.30844°
Altitude
807.811 km
Speed
7.449 km/s
True Right ascension
18h 35m 14s
True Declination
0° 00' 00"
Sunlit
Object was in daylight at epoch
Visualization orbit readout
Latitude
Unknown
Longitude
Unknown
Altitude
Unknown
Speed
Unknown
Apparent Right ascension
Unknown
Apparent Declination
Unknown
Sunlit
N/A
Visualization observer readout
Local Sidereal Time
21:07:18
Azimuth
Unknown
Elevation
Unknown
Doppler factor
Unknown
Orbital elements
Apogee altitude
825.359 km
Perigee altitude
777.822 km
Semi-major axis
7,179.727 km
Eccentricity
0.00331
Inclination
82.73°
RAAN
278.8104°
Arg. of periapsis
91.131°
True anomaly
268.98749°
Mean anomaly
269.3668°
Eccentric anomaly
269.17714°
Mean motion
3.56764 °/min
Orbital period
100.91 mins
BSTAR
0.0060216
Loading maneuver chart data...
Computing Atmospheric mass density...
Loading historical data...
Loading historical data...
Loading historical data...
Loading historical data...
Loading historical data...
Loading historical data...
Loading historical data...

Documentation

Showing up to 5 results
|